DW6885 Weather Reports


Display with metric or nautical units.
time (UTC)temp
F
wind
direction
speed
MPH
gust
MPH
rain 1hr
in
rain 24hr
in
rain mn
in
humidity
%
barometer
mb
20141128153456 23 0 0.0 0.0 0.00 0.00 0.00 96 1018.4
20141128153354 0 0.0 0.0 0.00 0.00 0.00 1018.4
20141128152457 23 0 0.0 0.0 0.00 0.00 0.00 96 1018.5
20141128151804 0 0.0 0.0 0.00 0.00 0.00 1018.5
20141128151457 23 0 0.0 0.0 0.00 0.00 0.00 96 1018.5
20141128150457 23 0 0.0 0.0 0.00 0.00 0.00 96 1018.6
20141128150354 0 0.0 0.0 0.00 0.00 0.00 1018.6
20141128145457 23 0 0.0 0.0 0.00 0.00 0.00 96 1018.5
20141128144804 0 0.0 0.0 0.00 0.00 0.00 1018.5
20141128143457 23 0 0.0 0.0 0.00 0.00 0.00 96 1018.3
20141128143355 0 0.0 0.0 0.00 0.00 0.00 1018.3
20141128142457 23 0 0.0 0.0 0.00 0.00 0.00 96 1018.2
20141128141803 0 0.0 0.0 0.00 0.00 0.00 1018.1
20141128141457 23 0 0.0 0.0 0.00 0.00 0.00 96 1018.1
20141128135954 0 0.0 0.0 0.00 0.00 0.00 1018.1
20141128135458 23 0 0.0 0.0 0.00 0.00 0.00 96 1018.1
20141128134457 23 0 0.0 1.0 0.00 0.00 0.00 96 1017.8
20141128134454 0 0.0 0.0 0.00 0.00 0.00 1017.8
20141128133456 23 0 0.0 1.0 0.00 0.00 0.00 96 1017.8
20141128132954 0 0.0 0.0 0.00 0.00 0.00 1017.8
20141128131454 22 96 0.0 1.0 0.00 0.00 0.00 96 1017.8
20141128130457 22 105 0.0 0.0 0.00 0.00 0.00 95 1017.8
20141128125958 21 105 0.0 0.0 0.00 0.00 0.00 95 1017.9
20141128125457 22 105 0.0 0.0 0.00 0.00 0.00 94 1017.7
20141128124454 21 105 0.0 0.0 0.00 0.00 0.00 93 1017.6
20141128123457 22 105 0.0 0.0 0.00 0.00 0.00 93 1017.5
20141128122853 22 105 0.0 0.0 0.00 0.00 0.00 93 1017.6
20141128122457 23 105 0.0 0.0 0.00 0.00 0.00 92 1017.6
20141128121458 23 105 0.0 0.0 0.00 0.00 0.00 93 1017.3
20141128121353 23 105 0.0 0.0 0.00 0.00 0.00 93 1017.3
20141128120457 24 105 0.0 0.0 0.00 0.00 0.00 93 1017.2
20141128115853 23 105 0.0 1.0 0.00 0.00 0.00 93 1017.2
20141128115457 24 105 0.0 0.0 0.00 0.00 0.00 94 1017.2
20141128114457 24 105 0.0 0.0 0.00 0.00 0.00 94 1017.1
20141128114354 24 105 0.0 1.0 0.00 0.00 0.00 94 1017.1
20141128112853 24 67 0.0 0.0 0.00 0.00 0.00 94 1017.1
20141128111457 24 67 0.0 1.0 0.00 0.00 0.00 94 1016.9
20141128111354 24 67 0.0 2.0 0.00 0.00 0.00 94 1016.9
20141128110457 24 67 0.0 1.0 0.00 0.00 0.00 94 1016.8
20141128110353 24 67 0.0 2.0 0.00 0.00 0.00 94 1016.8
20141128105457 24 336 0.0 1.0 0.00 0.00 0.00 94 1016.6
20141128104353 24 336 0.0 2.0 0.00 0.00 0.00 95 1016.4
20141128102804 24 336 0.0 0.0 0.00 0.00 0.00 95 1016.3
20141128101458 25 336 0.0 1.0 0.00 0.00 0.00 95 1016.3
20141128101354 24 336 0.0 1.0 0.00 0.00 0.00 95 1016.3
20141128095854 24 336 0.0 0.0 0.00 0.00 0.00 95 1016.4
20141128095457 25 336 0.0 0.0 0.00 0.00 0.00 95 1016.3
20141128094458 25 336 0.0 1.0 0.00 0.00 0.00 95 1016.2
20141128094354 24 336 0.0 2.0 0.00 0.00 0.00 95 1016.3
20141128092804 24 334 0.0 2.0 0.00 0.00 0.00 96 1016.2
20141128091457 25 239 0.0 0.0 0.00 0.00 0.00 96 1016.2
20141128091305 24 239 0.0 0.0 0.00 0.00 0.00 96 1016.3
20141128090458 25 239 0.0 0.0 0.00 0.00 0.00 96 1016.1
20141128085805 24 239 0.0 0.0 0.00 0.00 0.00 96 1016.1
20141128085458 25 239 0.0 0.0 0.00 0.00 0.00 96 1016.0
20141128084458 25 239 0.0 0.0 0.00 0.00 0.00 96 1016.0
20141128084354 24 239 0.0 0.0 0.00 0.00 0.00 96 1016.0
20141128082804 0 0.0 0.0 0.00 0.00 0.00 1015.7
20141128081000 0 0.0 0.0 0.00 0.00 0.00 1015.8
20141128080458 25 0 0.0 0.0 0.00 0.00 0.00 95 1015.7
20141128075459 25 0 0.0 0.0 0.00 0.00 0.00 95 1015.7
20141128074458 25 0 0.0 0.0 0.00 0.00 0.00 95 1015.7
20141128074356 0 0.0 0.0 0.00 0.00 0.00 1015.7
20141128072853 0 0.0 0.0 0.00 0.00 0.00 1015.6
20141128071458 25 0 0.0 0.0 0.00 0.00 0.00 95 1015.7
20141128070956 0 0.0 0.0 0.00 0.00 0.00 1015.7
20141128070458 25 0 0.0 0.0 0.00 0.00 0.00 95 1015.7
20141128065503 25 0 0.0 0.0 0.00 0.00 0.00 95 1015.8
20141128065458 0 0.0 0.0 0.00 0.00 0.00 1015.8
20141128064458 25 0 0.0 0.0 0.00 0.00 0.00 95 1015.7
20141128063955 0 0.0 0.0 0.00 0.00 0.00 1015.6
20141128063459 25 0 0.0 0.0 0.00 0.00 0.00 95 1015.7
20141128062500 0 0.0 0.0 0.00 0.00 0.00 1015.5
20141128060857 0 0.0 0.0 0.00 0.00 0.00 1015.3
20141128060458 25 0 0.0 0.0 0.00 0.00 0.00 95 1015.3
20141128055458 25 0 0.0 0.0 0.00 0.00 0.00 95 1015.4
20141128055355 0 0.0 0.0 0.00 0.00 0.00 1015.4
20141128054458 25 0 0.0 0.0 0.00 0.00 0.00 95 1015.3
20141128053854 0 0.0 0.0 0.00 0.00 0.00 1015.3
20141128053459 25 0 0.0 0.0 0.00 0.00 0.00 95 1015.3
20141128052458 25 0 0.0 0.0 0.00 0.00 0.00 95 1015.3
20141128052353 0 0.0 0.0 0.00 0.00 0.00 1015.3
20141128051458 25 0 0.0 0.0 0.00 0.00 0.00 95 1015.2
20141128050854 0 0.0 0.0 0.00 0.00 0.00 1015.2
20141128050458 25 0 0.0 0.0 0.00 0.00 0.00 95 1015.2
20141128045457 25 0 0.0 0.0 0.00 0.00 0.00 95 1015.0
20141128045353 0 0.0 0.0 0.00 0.00 0.00 1015.0
20141128043748 0 0.0 0.0 0.00 0.00 0.00 1014.8
20141128043457 25 0 0.0 0.0 0.00 0.00 0.00 95 1014.8
20141128042305 0 0.0 0.0 0.00 0.00 0.00 1014.7
20141128041457 25 318 0.0 1.0 0.00 0.00 0.00 95 1014.4
20141128040805 25 318 0.0 2.0 0.00 0.00 0.00 95 1014.2
20141128040457 25 318 0.0 1.0 0.00 0.00 0.00 95 1014.1
20141128035457 25 318 0.0 0.0 0.00 0.00 0.00 95 1013.8
20141128035305 25 318 0.0 0.0 0.00 0.00 0.00 95 1013.8
20141128033804 0 0.0 0.0 0.00 0.00 0.00 1013.4
20141128033457 30 0 0.0 0.0 0.00 0.00 0.00 98 1013.5
20141128032457 30 0 0.0 0.0 0.00 0.00 0.00 98 1013.5
20141128032305 0 0.0 0.0 0.00 0.00 0.00 1013.5
20141128031456 30 0 0.0 0.0 0.00 0.00 0.00 98 1013.5
20141128030804 0 0.0 0.0 0.00 0.00 0.00 1013.4
20141128030457 30 0 0.0 0.0 0.00 0.00 0.00 98 1013.4
20141128025457 30 0 0.0 0.0 0.00 0.00 0.00 98 1013.4
20141128025305 0 0.0 0.0 0.00 0.00 0.00 1013.4
20141128024457 30 0 0.0 0.0 0.00 0.00 0.00 98 1013.5
20141128023806 0 0.0 0.0 0.00 0.00 0.00 1013.5
20141128023457 30 0 0.0 0.0 0.00 0.00 0.00 98 1013.5
20141128022540 30 0 0.0 0.0 0.00 0.00 0.00 98 1013.5
20141128022455 0 0.0 0.0 0.00 0.00 0.00 1013.5
20141128021457 30 0 0.0 0.0 0.00 0.00 0.00 98 1013.5
20141128020854 0 0.0 0.0 0.00 0.00 0.00 1013.4
20141128020457 30 0 0.0 0.0 0.00 0.00 0.00 98 1013.5
20141128015456 30 0 0.0 0.0 0.00 0.00 0.00 98 1013.5
20141128015305 0 0.0 0.0 0.00 0.00 0.00 1013.5
20141128013456 30 0 0.0 0.0 0.00 0.00 0.00 98 1013.4
20141128013453 0 0.0 0.0 0.00 0.00 0.00 1013.4
20141128012456 30 0 0.0 0.0 0.00 0.00 0.00 98 1013.4
20141128011954 0 0.0 0.0 0.00 0.00 0.00 1013.4
20141128011457 30 0 0.0 0.0 0.00 0.00 0.00 98 1013.4
20141128010457 30 0 0.0 0.0 0.00 0.00 0.00 98 1013.2
20141128010454 0 0.0 0.0 0.00 0.00 0.00 1013.3
20141128005457 30 0 0.0 0.0 0.00 0.00 0.00 98 1013.3
20141128004953 0 0.0 0.0 0.00 0.00 0.00 1013.3
20141128004456 30 0 0.0 0.0 0.00 0.00 0.00 98 1013.2
20141128003453 0 0.0 0.0 0.00 0.00 0.00 1013.2
20141128001953 0 0.0 0.0 0.00 0.00 0.00 1013.1
20141128000805 0 0.0 0.0 0.00 0.00 0.00 1012.9
20141128000456 30 0 0.0 0.0 0.00 0.00 0.00 98 1012.8
20141127234807 0 0.0 0.0 0.00 0.00 0.00 1012.8
20141127233456 30 0 0.0 0.0 0.00 0.00 0.00 98 1012.6
20141127233306 0 0.0 0.0 0.00 0.00 0.00 1012.6
20141127232457 30 0 0.0 0.0 0.00 0.00 0.00 98 1012.5
20141127231804 0 0.0 0.0 0.00 0.00 0.00 1012.5
20141127230456 30 0 0.0 0.0 0.00 0.00 0.00 98 1012.4
20141127230304 0 0.0 0.0 0.00 0.00 0.00 1012.4
20141127224803 0 0.0 0.0 0.00 0.00 0.00 1012.4
20141127224457 30 0 0.0 0.0 0.00 0.00 0.00 98 1012.5
20141127223304 0 0.0 0.0 0.00 0.00 0.00 1012.3
20141127222457 30 0 0.0 0.0 0.00 0.00 0.00 98 1012.5
20141127221802 0 0.0 0.0 0.00 0.00 0.00 1012.5
20141127221456 30 0 0.0 0.0 0.00 0.00 0.00 98 1012.4
20141127220353 0 0.0 0.0 0.00 0.00 0.00 1012.4
20141127215456 30 0 0.0 0.0 0.00 0.00 0.00 98 1012.4
20141127214954 0 0.0 0.0 0.00 0.00 0.00 1012.4
20141127213456 30 0 0.0 0.0 0.00 0.00 0.00 98 1012.3
20141127213303 0 0.0 0.0 0.00 0.00 0.00 1012.3
20141127212457 30 0 0.0 0.0 0.00 0.00 0.00 98 1012.2
20141127211804 0 0.0 0.0 0.00 0.00 0.00 1012.2
20141127211456 30 0 0.0 0.0 0.00 0.00 0.00 98 1012.2
20141127210303 0 0.0 0.0 0.00 0.00 0.00 1012.2
20141127205456 30 0 0.0 0.0 0.00 0.00 0.00 98 1012.2
20141127204804 0 0.0 0.0 0.00 0.00 0.00 1012.0
20141127204456 30 0 0.0 2.0 0.00 0.00 0.00 98 1012.0
20141127203304 0 0.0 0.0 0.00 0.00 0.00 1012.1
20141127202456 30 317 2.0 2.0 0.00 0.00 0.00 98 1012.1
20141127201457 30 306 0.0 2.0 0.00 0.00 0.00 98 1012.2
20141127201454 0 317 2.0 2.0 0.00 0.00 0.00 1012.3
20141127200456 30 0 0.0 0.0 0.00 0.00 0.00 98 1012.2
20141127195954 0 0.0 0.0 0.00 0.00 0.00 1012.4
20141127195457 30 0 0.0 0.0 0.00 0.00 0.00 98 1012.4
20141127194453 0 0.0 0.0 0.00 0.00 0.00 1012.4
20141127193456 30 0 0.0 0.0 0.00 0.00 0.00 98 1012.5
20141127193303 0 0.0 0.0 0.00 0.00 0.00 1012.4
20141127191453 0 0.0 0.0 0.00 0.00 0.00 1012.9
20141127190456 30 0 0.0 0.0 0.00 0.00 0.00 98 1013.2
20141127185853 0 0.0 0.0 0.00 0.00 0.00 1013.4
20141127185457 30 0 0.0 0.0 0.00 0.00 0.00 98 1013.5
20141127184457 30 0 0.0 0.0 0.00 0.00 0.00 98 1013.5
20141127184453 0 0.0 0.0 0.00 0.00 0.00 1013.5
20141127182954 0 0.0 0.0 0.00 0.00 0.00 1013.4
20141127182456 30 0 0.0 0.0 0.00 0.00 0.00 98 1013.5
20141127181456 30 0 0.0 0.0 0.00 0.00 0.00 98 1013.4
20141127181303 0 0.0 0.0 0.00 0.00 0.00 1013.5
20141127175853 0 0.0 0.0 0.00 0.00 0.00 1013.3
20141127174456 30 0 0.0 0.0 0.00 0.00 0.00 98 1013.3
20141127174302 0 0.0 0.0 0.00 0.00 0.00 1013.3
20141127172804 0 0.0 0.0 0.00 0.00 0.00 1013.4
20141127172456 30 0 0.0 0.0 0.00 0.00 0.00 98 1013.3
20141127171456 30 0 0.0 0.0 0.00 0.00 0.00 98 1013.2
20141127171354 0 0.0 0.0 0.00 0.00 0.00 1013.2
20141127170457 30 0 0.0 0.0 0.00 0.00 0.00 98 1013.2
20141127165853 0 0.0 0.0 0.00 0.00 0.00 1013.1
20141127165456 30 0 0.0 0.0 0.00 0.00 0.00 98 1013.2
20141127164457 30 0 0.0 0.0 0.00 0.00 0.00 98 1013.3
20141127164353 0 0.0 0.0 0.00 0.00 0.00 1013.3
20141127162853 0 0.0 0.0 0.00 0.00 0.00 1013.4
20141127162456 30 0 0.0 0.0 0.00 0.00 0.00 98 1013.4
20141127161457 30 0 0.0 0.0 0.00 0.00 0.00 98 1013.4
20141127161353 0 0.0 0.0 0.00 0.00 0.00 1013.4
20141127160456 30 0 0.0 0.0 0.00 0.00 0.00 98 1013.5
20141127155854 0 0.0 0.0 0.00 0.00 0.00 1013.5
20141127154458 30 0 0.0 0.0 0.00 0.00 0.00 98 1013.5
20141127154352 0 0.0 0.0 0.00 0.00 0.00 1013.5